When you browse on this site, cookies collect data to enhance your experience and personalize the content and advertising you see.
Visit our Privacy Policy to learn more. By continuing to use the site, you agree to this use of cookies and data.
  • En España
  • Lista de países
  • Para 7 días
  • Temperatura del agua
  • El tiempo en el mapa
  • Informadores
  • user-avatar
    Iniciar sesión

    Tiempo cada hora Ibb

    Hoy, 29 Mayo, Viernes

    Tiempo Temperatura Precipitaciones Viento Presión Humedad
    00:00 +22°C° 0 mm 1 mps 596 mmHg 63%
    01:00 +22°C° 0 mm 1 mps 595 mmHg 61%
    02:00 +21°C° 0 mm 1 mps 595 mmHg 60%
    03:00 +21°C° 0 mm 1 mps 594 mmHg 59%
    04:00 +21°C° 0 mm 1 mps 594 mmHg 56%
    05:00 +21°C° 0 mm 1 mps 594 mmHg 54%
    06:00 +19°C° 0 mm 2 mps 594 mmHg 51%
    07:00 +21°C° 0 mm 2 mps 595 mmHg 42%
    08:00 +24°C° 0 mm 3 mps 596 mmHg 34%
    09:00 +26°C° 0 mm 3 mps 597 mmHg 24%
    10:00 +27°C° 0 mm 3 mps 597 mmHg 22%
    11:00 +28°C° 0 mm 3 mps 597 mmHg 21%
    12:00 +29°C° 0 mm 3 mps 598 mmHg 19%
    13:00 +29°C° 0 mm 3 mps 597 mmHg 21%
    14:00 +29°C° 0 mm 3 mps 597 mmHg 23%
    15:00 +29°C° 0 mm 3 mps 596 mmHg 26%
    16:00 +28°C° 0.1 mm 3 mps 596 mmHg 34%
    17:00 +26°C° 0.1 mm 3 mps 596 mmHg 43%
    18:00 +25°C° 0.1 mm 3 mps 595 mmHg 51%
    19:00 +24°C° 0.2 mm 2 mps 595 mmHg 56%
    20:00 +24°C° 0.2 mm 1 mps 595 mmHg 61%
    21:00 +23°C° 0.2 mm 1 mps 595 mmHg 66%
    22:00 +23°C° 0 mm 1 mps 595 mmHg 64%
    23:00 +22°C° 0 mm 1 mps 595 mmHg 62%

    Mañana, 30 Mayo, Sábado

    Tiempo Temperatura Precipitaciones Viento Presión Humedad
    00:00 +21°C° 0 mm 2 mps 595 mmHg 59%
    01:00 +21°C° 0 mm 2 mps 594 mmHg 55%
    02:00 +21°C° 0 mm 2 mps 594 mmHg 51%
    03:00 +20°C° 0 mm 2 mps 593 mmHg 46%
    04:00 +20°C° 0 mm 2 mps 593 mmHg 44%
    05:00 +20°C° 0 mm 2 mps 593 mmHg 41%
    06:00 +20°C° 0 mm 2 mps 594 mmHg 39%
    07:00 +23°C° 0 mm 2 mps 595 mmHg 32%
    08:00 +25°C° 0 mm 3 mps 596 mmHg 25%
    09:00 +27°C° 0 mm 3 mps 597 mmHg 18%
    10:00 +28°C° 0 mm 4 mps 597 mmHg 18%
    11:00 +29°C° 0 mm 4 mps 597 mmHg 18%
    12:00 +29°C° 0 mm 4 mps 598 mmHg 17%
    13:00 +29°C° 0 mm 4 mps 597 mmHg 21%
    14:00 +29°C° 0 mm 5 mps 597 mmHg 24%
    15:00 +29°C° 0 mm 5 mps 596 mmHg 28%
    16:00 +28°C° 0.1 mm 4 mps 596 mmHg 34%
    17:00 +27°C° 0.1 mm 3 mps 596 mmHg 41%
    18:00 +26°C° 0.1 mm 2 mps 595 mmHg 47%
    19:00 +25°C° 0.3 mm 1 mps 595 mmHg 53%
    20:00 +24°C° 0.3 mm 1 mps 596 mmHg 59%
    21:00 +23°C° 0.3 mm 1 mps 596 mmHg 65%
    22:00 +23°C° 0 mm 1 mps 596 mmHg 65%
    23:00 +21°C° 0 mm 0 mps 595 mmHg 65%

    Pasado mañana, 31 Mayo, Domingo

    Tiempo Temperatura Precipitaciones Viento Presión Humedad
    00:00 +21°C° 0 mm 0 mps 595 mmHg 66%
    01:00 +20°C° 0 mm 0 mps 595 mmHg 65%
    02:00 +20°C° 0 mm 0 mps 595 mmHg 64%
    03:00 +20°C° 0 mm 0 mps 594 mmHg 63%
    04:00 +20°C° 0 mm 0 mps 594 mmHg 62%
    05:00 +20°C° 0 mm 0 mps 595 mmHg 61%
    06:00 +20°C° 0 mm 0 mps 595 mmHg 61%
    07:00 +23°C° 0 mm 1 mps 596 mmHg 52%
    08:00 +25°C° 0 mm 1 mps 597 mmHg 44%
    09:00 +26°C° 0 mm 1 mps 598 mmHg 35%
    10:00 +27°C° 0.1 mm 2 mps 598 mmHg 36%
    11:00 +27°C° 0.1 mm 2 mps 598 mmHg 36%
    12:00 +28°C° 0.1 mm 3 mps 597 mmHg 36%
    13:00 +27°C° 0.2 mm 3 mps 597 mmHg 38%
    14:00 +27°C° 0.2 mm 3 mps 596 mmHg 40%
    15:00 +27°C° 0.2 mm 3 mps 596 mmHg 42%
    16:00 +26°C° 1 mm 3 mps 596 mmHg 48%
    17:00 +25°C° 1 mm 3 mps 595 mmHg 53%
    18:00 +24°C° 1 mm 2 mps 595 mmHg 58%
    19:00 +24°C° 0.4 mm 2 mps 595 mmHg 61%
    20:00 +24°C° 0.4 mm 1 mps 595 mmHg 63%
    21:00 +23°C° 0.4 mm 1 mps 595 mmHg 66%
    22:00 +23°C° 0 mm 1 mps 595 mmHg 63%
    23:00 +23°C° 0 mm 1 mps 595 mmHg 61%

    1 Junio, Lunes

    Tiempo Temperatura Precipitaciones Viento Presión Humedad
    00:00 +23°C° 0 mm 1 mps 595 mmHg 59%
    01:00 +23°C° 0 mm 1 mps 595 mmHg 57%
    02:00 +22°C° 0 mm 1 mps 594 mmHg 56%
    03:00 +22°C° 0 mm 1 mps 594 mmHg 55%
    04:00 +22°C° 0 mm 1 mps 594 mmHg 53%
    05:00 +22°C° 0 mm 1 mps 594 mmHg 52%
    06:00 +22°C° 0 mm 1 mps 595 mmHg 50%
    07:00 +23°C° 0 mm 1 mps 596 mmHg 43%
    08:00 +25°C° 0 mm 2 mps 597 mmHg 35%
    09:00 +27°C° 0 mm 2 mps 598 mmHg 27%
    10:00 +28°C° 0 mm 3 mps 598 mmHg 27%
    11:00 +29°C° 0 mm 4 mps 598 mmHg 26%
    12:00 +29°C° 0 mm 5 mps 598 mmHg 26%
    13:00 +29°C° 0 mm 5 mps 597 mmHg 29%
    14:00 +29°C° 0 mm 4 mps 596 mmHg 32%
    15:00 +28°C° 0 mm 4 mps 596 mmHg 35%
    16:00 +27°C° 0.1 mm 4 mps 595 mmHg 40%
    17:00 +27°C° 0.1 mm 4 mps 595 mmHg 44%
    18:00 +26°C° 0.1 mm 4 mps 594 mmHg 49%
    19:00 +25°C° 0.2 mm 3 mps 594 mmHg 54%
    20:00 +24°C° 0.2 mm 2 mps 594 mmHg 58%
    21:00 +24°C° 0.2 mm 1 mps 595 mmHg 63%
    22:00 +24°C° 0 mm 1 mps 594 mmHg 61%
    23:00 +23°C° 0 mm 2 mps 594 mmHg 58%

    2 Junio, Martes

    Tiempo Temperatura Precipitaciones Viento Presión Humedad
    00:00 +23°C° 0 mm 2 mps 594 mmHg 56%
    01:00 +23°C° 0 mm 2 mps 594 mmHg 55%
    02:00 +22°C° 0 mm 1 mps 593 mmHg 55%
    03:00 +22°C° 0 mm 1 mps 593 mmHg 54%
    04:00 +22°C° 0 mm 1 mps 593 mmHg 55%
    05:00 +21°C° 0 mm 1 mps 593 mmHg 56%
    06:00 +21°C° 0 mm 1 mps 593 mmHg 56%
    07:00 +23°C° 0 mm 1 mps 594 mmHg 49%
    08:00 +24°C° 0 mm 1 mps 595 mmHg 41%
    09:00 +26°C° 0 mm 2 mps 596 mmHg 33%
    10:00 +27°C° 0.1 mm 3 mps 596 mmHg 33%
    11:00 +27°C° 0.1 mm 3 mps 596 mmHg 34%
    12:00 +28°C° 0.1 mm 4 mps 596 mmHg 34%
    13:00 +27°C° 0.7 mm 4 mps 595 mmHg 39%
    14:00 +26°C° 0.7 mm 3 mps 595 mmHg 44%
    15:00 +25°C° 0.7 mm 3 mps 594 mmHg 49%
    16:00 +25°C° 1.4 mm 3 mps 594 mmHg 54%
    17:00 +24°C° 1.4 mm 2 mps 593 mmHg 59%
    18:00 +23°C° 1.4 mm 1 mps 593 mmHg 64%
    19:00 +22°C° 1.2 mm 1 mps 593 mmHg 65%
    20:00 +22°C° 1.2 mm 1 mps 594 mmHg 67%
    21:00 +22°C° 1.2 mm 1 mps 594 mmHg 69%
    22:00 +22°C° 0.3 mm 1 mps 594 mmHg 69%
    23:00 +21°C° 0.3 mm 1 mps 593 mmHg 69%

    3 Junio, Miércoles

    Tiempo Temperatura Precipitaciones Viento Presión Humedad
    00:00 +19°C° 0.3 mm 0 mps 593 mmHg 70%
    01:00 +21°C° 0.6 mm 1 mps 593 mmHg 70%
    02:00 +21°C° 0.6 mm 1 mps 593 mmHg 70%
    03:00 +21°C° 0.6 mm 1 mps 592 mmHg 70%
    04:00 +20°C° 0.2 mm 1 mps 593 mmHg 72%
    05:00 +20°C° 0.2 mm 1 mps 593 mmHg 73%
    06:00 +20°C° 0.2 mm 1 mps 593 mmHg 75%
    07:00 +21°C° 0.4 mm 1 mps 594 mmHg 71%
    08:00 +21°C° 0.4 mm 1 mps 594 mmHg 68%
    09:00 +21°C° 0.4 mm 2 mps 595 mmHg 64%
    10:00 +20°C° 0.6 mm 2 mps 594 mmHg 66%
    11:00 +20°C° 0.6 mm 2 mps 594 mmHg 68%
    12:00 +20°C° 0.6 mm 2 mps 593 mmHg 70%
    13:00 +20°C° 0.5 mm 2 mps 593 mmHg 69%
    14:00 +20°C° 0.5 mm 2 mps 593 mmHg 67%
    15:00 +21°C° 0.5 mm 2 mps 593 mmHg 66%
    16:00 +20°C° 0.9 mm 2 mps 593 mmHg 70%
    17:00 +20°C° 0.9 mm 2 mps 593 mmHg 74%
    18:00 +20°C° 0.9 mm 1 mps 592 mmHg 78%
    19:00 +19°C° 2 mm 2 mps 593 mmHg 80%
    20:00 +18°C° 2 mm 2 mps 593 mmHg 82%
    21:00 +18°C° 2 mm 2 mps 593 mmHg 84%
    22:00 +17°C° 0.8 mm 2 mps 593 mmHg 82%
    23:00 +18°C° 0.8 mm 1 mps 593 mmHg 80%
    Mostrar más